AirNav   Air Wisconsin Up To $57,000 Bonus
 
 1039 users online  

8S3 Santiam Junction State Airport
Santiam Junction, Oregon, USA

GOING TO SANTIAM JUNCTION?


FAA INFORMATION EFFECTIVE 25 MARCH 2021

Location

FAA Identifier: 8S3
Lat/Long: 44-26-04.4000N 121-56-32.2000W
44-26.073333N 121-56.536667W
44.4345556,-121.9422778
(estimated)
Elevation: 3780 ft. / 1152 m (estimated)
Variation: 19E (1985)
Time zone: UTC -7 (UTC -8 during Standard Time)
Zip code: 97730

Airport Operations

Airport use: Open to the public
Activation date: 09/1945
Control tower: no
ARTCC: SEATTLE CENTER
FSS: MC MINNVILLE FLIGHT SERVICE STATION
NOTAMs facility: MMV (NOTAM-D service available)
Attendance: UNATNDD
STATE HIGHWAY MAINTENANCE STATION NEARBY.
Wind indicator: yes
Segmented circle: yes

Airport Communications

CTAF: 122.9

Nearby radio navigation aids

VOR radial/distance  VOR name  Freq  Var
DSDr274/29.5DESCHUTES VORTAC117.6018E

Airport Services

Airframe service: NONE
Powerplant service: NONE
Bottled oxygen: NONE
Bulk oxygen: NONE

Runway Information

Runway 6/24

Dimensions: 2800 x 150 ft. / 853 x 46 m
Surface: gravel, in good condition
VOLCANIC CINDERS.
Runway edge markings: 06/24 MKD WITH WHITE TIRES AT CORNERS.
Operational restrictions: LAND TO EAST TKOF TO WEST.
RUNWAY 6  RUNWAY 24
Traffic pattern: leftleft
Obstructions: 32 ft. trees, 160 ft. from runway, 100 ft. right of centerline, 5:1 slope to clear200 ft. trees, 450 ft. from runway, 2:1 slope to clear

Airport Ownership and Management from official FAA records

Ownership: Publicly-owned
Owner: OREGON DEPT OF AVIATION
3040 25TH ST SE
SALEM, OR 97302
Phone 503-378-4880
Manager: STATE AIRPORTS MGR
3040 25TH ST SE
SALEM, OR 97302
Phone (503) 378-2523

Airport Operational Statistics

Aircraft operations: 206/year *
97% transient general aviation
3% military
* for 12-month period ending 13 August 2019

Additional Remarks

ARPT SURROUNDED BY TREES AND HIGH TERRAIN.
OWNER ADVISES CONTACT WITH DEPT OF AVIATION (503-378-4880) PRIOR TO USE.
ARPT CLSD NOV 1- MAY 1 OR WHEN COVERED BY SNOW.
RY THLDS MARKED WITH WHITE TIRES AT CORNERS.
FOR CD CTC SEATTLE ARTCC AT 253-351-3694.

Instrument Procedures

There are no published instrument procedures at 8S3.

Some nearby airports with instrument procedures:

KRDM - Roberts Field Airport (36 nm E)
S33 - Madras Municipal Airport (37 nm NE)
KBDN - Bend Municipal Airport (38 nm SE)
S21 - Sunriver Airport (40 nm SE)
S39 - Prineville Airport (45 nm E)
 
Loc | Ops | Rwys | IFR | FBO | Links
Com | Nav | Svcs | Stats | Notes
Area around 8S3 (Santiam Junction State Airport)
 
Road maps at: MapQuest Bing Google
 
Aerial photo
WARNING: Photo may not be current or correct
Aerial photo of 8S3 (Santiam Junction State Airport)
Photo taken 22-Jun-2014
looking northeast.

Do you have a better or more recent aerial photo of Santiam Junction State Airport that you would like to share? If so, please send us your photo.

 
Sectional chart

 
Airport distance calculator
Flying to Santiam Junction State Airport? Find the distance to fly.

From to 8S3

Sunrise and sunset
Times for 14-Apr-2021
 Local
(UTC-7)
 Zulu
(UTC)
Morning civil twilight05:5612:56
Sunrise06:2613:26
Sunset19:5002:50
Evening civil twilight20:2003:20

Current date and time
Zulu (UTC)  15-Apr-2021 01:28:06
Local (UTC-7)  14-Apr-2021 18:28:06
 
METAR
KRDM 
36nm E 
150056Z 02014G21KT 10SM CLR 13/M08 A3003 RMK AO2 SLP170 T01331083
KS33 
37nm NE 
150115Z AUTO 02014G22KT 10SM CLR 13/M06 A3006 RMK AO2
KBDN 
38nm SE 
150115Z AUTO 01014G19KT 10SM CLR 12/M09 A3004 RMK AO2
TAF
KRDM 
36nm E 
142121Z 1421/1518 35010G20KT P6SM FEW120 SCT200 FM150300 36008G15KT P6SM SCT120 FM150900 VRB03KT P6SM FEW120
KBDN 
38nm SE 
141720Z 1418/1518 32007KT P6SM SKC TEMPO 1418/1420 33010G20KT FM142000 35010G20KT P6SM SKC FM150300 32008KT P6SM SCT120 FM150900 VRB06KT P6SM FEW120
NOTAMs
Click for the latest NOTAMs
NOTAMs are issued by the DoD/FAA and will open in a separate window not controlled by AirNav.

 

 
 

Would you like to see your business listed on this page?

 If your business provides an interesting product or service to pilots, flight crews, aircraft, or users of the Santiam Junction State Airport, you should consider listing it here.  To start the listing process, click on the button below
 
Add a business
 

Other Pages about Santiam Junction State Airport

www.oregon.gov/...
 
Update a link
 
Copyright © AirNav, LLC. All rights reserved. Privacy Policy  Contact